STARLINK-11141, 60066

Orbit data source: Space-Track

STARLINK-11141, 60066 is a payload satellite owned by SpaceX/Seattle (US) in LEO that was launched on Wed, 19 Jun 2024 UTC via an FALCON 9 launch vehicle from the Air Force Western Test Range (AFWTR). Payload-class satellites include a variety of spacecraft equipped with specific instruments for various scientific and technological missions. These include communications satellites like Starlink; space stations such as the ISS; scientific satellites like the Hubble; Earth observation satellites from companies like Planet Labs, Umbra, and HawkEye 360; GPS; miniature CubeSats for education and research; and military/defense satellites.

Loading next visibility...
Identifier
60066, 2024-113H
Orbit
LEO
Country
Flag of USUS
Related business
Manufacturer
SpaceX/Seattle
Mission
Operational Commercial Communications
Bus & Motor
STARLINK V2MD, Unknown motor
Mass
960 kg wet, ~910 kg dry
Launch date (UTC)
2024-06-19 (2 years ago)
Launch vehicle
FALCON 9
Launch site
Air Force Western Test Range (AFWTR)
Object type
Payload
Rocket body
Debris
Shape & HBR
Box + 2 Pan, 18.1 m
Radar Cross Section
36.964 m², Large (>1 m²)

Expand to show TLE details & history
Last TLE update: 13 hours ago

TLE from 13 hours ago
0 STARLINK-11141
1 60066U 24113H   26171.38087469  .00000711  00000-0  10722-4 0  9996
2 60066  53.1576  44.7145 0000877  95.5962 264.5155 15.69709567115695
Epoch: 2026-06-20T09:08Z
TLE epoch observation values (Epoch: 2026-06-20T09:08:27.573Z)
Latitude
-0.00008°
Longitude
-0.99677°
Altitude
360.699 km
Speed
7.694 km/s
True Right ascension
02h 58m 51s
True Declination
0° 00' 00"
Sunlit
Object was in daylight at epoch
Visualization orbit readout
Latitude
Unknown
Longitude
Unknown
Altitude
Unknown
Speed
Unknown
Apparent Right ascension
Unknown
Apparent Declination
Unknown
Sunlit
N/A
Visualization observer readout
Local Sidereal Time
08:42:03
Azimuth
Unknown
Elevation
Unknown
Doppler factor
Unknown
Orbital elements
Apogee altitude
360.58 km
Perigee altitude
359.398 km
Semi-major axis
6,738.126 km
Eccentricity
0.00009
Inclination
53.1576°
RAAN
44.7145°
Arg. of periapsis
95.5962°
True anomaly
264.5055°
Mean anomaly
264.5155°
Eccentric anomaly
264.5105°
Mean motion
3.92405 °/min
Orbital period
91.74 mins
BSTAR
0.000010722
Loading maneuver chart data...
Computing Atmospheric mass density...

Documentation

Showing up to 5 results
|